Kingman, Arizona, United States (86401)
Lat: 35.19N, Lon: 114.05W
Wx Zone: AZZ003
Local Info
Past Weather Observations for Friday, November 21, 2014

NOTE: This archive is for the closest National Weather Service station to Kingman. Information may differ from the station used for current weather conditions.

Click here for Long-term Archive

Time Weather Temperature Dewpoint Humidity Pressure Winds Precip Visibility
23:51
Clear
39°F / 4°C 18°F / -8°C 42% 30.09 in
(1019 mb)
S 5.8 mph
(S 9 kph)
- 10SM
22:51
Clear
43°F / 6°C 18°F / -8°C 36% 30.06 in
(1018 mb)
SSE 3.5 mph
(SSE 6 kph)
- 10SM
21:51
Clear
43°F / 6°C 18°F / -8°C 36% 30.06 in
(1018 mb)
SE 10.4 mph
(SE 17 kph)
- 10SM
20:51
Clear
45°F / 7°C 18°F / -8°C 34% 30.04 in
(1017 mb)
ESE 9.2 mph
(ESE 15 kph)
- 10SM
19:51
Clear
45°F / 7°C 18°F / -8°C 34% 30.04 in
(1017 mb)
SE 10.4 mph
(SE 17 kph)
- 10SM
18:51
Clear
48°F / 9°C 18°F / -8°C 29% 30.01 in
(1016 mb)
E 8.1 mph
(E 13 kph)
- 10SM
17:51
Clear
52°F / 11°C 16°F / -9°C 24% 29.98 in
(1015 mb)
NNE 6.9 mph
(NNE 11 kph)
- 10SM
16:51
Clear
63°F / 17°C 14°F / -10°C 15% 29.98 in
(1015 mb)
NE 4.6 mph
(NE 7 kph)
- 10SM
15:51
Clear
64°F / 18°C 12°F / -11°C 13% 29.95 in
(1014 mb)
N 4.6 mph
(N 7 kph)
- 10SM
14:51
Clear
64°F / 18°C 12°F / -11°C 13% 29.95 in
(1014 mb)
Variable 4.6 mph
(Variable 7 kph)
- 10SM
13:51
Clear
64°F / 18°C 12°F / -11°C 13% 29.95 in
(1014 mb)
NW 9.2 mph
(NW 15 kph)
- 10SM
12:51
Clear
63°F / 17°C 12°F / -11°C 14% 29.98 in
(1015 mb)
Variable 5.8 mph
(Variable 9 kph)
- 10SM
11:51
Clear
63°F / 17°C 12°F / -11°C 14% 29.98 in
(1015 mb)
Calm - 10SM
10:51
Clear
61°F / 16°C 10°F / -12°C 13% 29.98 in
(1015 mb)
NE 4.6 mph
(NE 7 kph)
- 10SM
09:51
Mostly Cloudy
59°F / 15°C 12°F / -11°C 16% 29.98 in
(1015 mb)
NE 9.2 mph
(NE 15 kph)
- 10SM
08:51
Clear
52°F / 11°C 14°F / -10°C 22% 29.98 in
(1015 mb)
E 9.2 mph
(E 15 kph)
- 10SM
07:51
Clear
45°F / 7°C 16°F / -9°C 31% 29.98 in
(1015 mb)
SE 3.5 mph
(SE 6 kph)
- 10SM
06:51
Clear
46°F / 8°C 16°F / -9°C 29% 29.95 in
(1014 mb)
SE 8.1 mph
(SE 13 kph)
- 10SM
05:51
Clear
43°F / 6°C 18°F / -8°C 36% 29.95 in
(1014 mb)
SE 11.5 mph
(SE 19 kph)
- 10SM
04:51
Clear
45°F / 7°C 18°F / -8°C 34% 29.95 in
(1014 mb)
SSE 3.5 mph
(SSE 6 kph)
- 10SM
03:51
Clear
45°F / 7°C 18°F / -8°C 34% 29.95 in
(1014 mb)
SSE 6.9 mph
(SSE 11 kph)
- 10SM
02:51
Clear
48°F / 9°C 16°F / -9°C 27% 29.95 in
(1014 mb)
SW 5.8 mph
(SW 9 kph)
- 10SM
01:51
Clear
48°F / 9°C 18°F / -8°C 29% 29.95 in
(1014 mb)
SE 10.4 mph
(SE 17 kph)
- 10SM
00:51
Clear
46°F / 8°C 23°F / -5°C 40% 29.98 in
(1015 mb)
SE 5.8 mph
(SE 9 kph)
- 10SM
Time Weather Temperature Dewpoint Humidity Pressure Winds Precip Visibility


Weather for websites

WeatherForYou.com, LLC is not responsible for any damages or problems caused by this service. Current weather conditions are obtained from the closest station including government and personal stations which may have varying degrees of accuracy. Weather forecasts are derived from the NOAA NDFD. Like all things, this site belongs to Jesus Christ... He just trusts me to maintain it. If you have any questions or comments email webmaster@weatherforyou.com

Copyright © 2014, WeatherForYou.com LLC. All rights reserved.